When you browse on this site, cookies collect data to enhance your experience and personalize the content and advertising you see.
Visit our Privacy Policy to learn more. By continuing to use the site, you agree to this use of cookies and data.
  • In Hungary
  • List of Countries
  • For 7 days
  • Water Temperature
  • Weather Map
  • News
  • Weather Widgets
  • user-avatar
    Login

    Hourly Weather Wilkow

    Today, 11 November, Monday

    Time Temperature Precipitation Wind Pressure Humidity
    00:00 +4°C° 0.4 mm 3 mps 733 mmHg 88%
    01:00 +4°C° 0 mm 3 mps 733 mmHg 87%
    02:00 +4°C° 0.1 mm 2 mps 733 mmHg 87%
    03:00 +4°C° 0.1 mm 2 mps 733 mmHg 88%
    04:00 +4°C° 0.1 mm 2 mps 733 mmHg 88%
    05:00 +4°C° 0 mm 2 mps 733 mmHg 89%
    06:00 +4°C° 0 mm 1 mps 734 mmHg 90%
    07:00 +3°C° 0 mm 1 mps 734 mmHg 89%
    08:00 +4°C° 0 mm 1 mps 734 mmHg 84%
    09:00 +5°C° 0 mm 1 mps 734 mmHg 79%
    10:00 +6°C° 0 mm 1 mps 734 mmHg 74%
    11:00 +6°C° 0 mm 2 mps 734 mmHg 71%
    12:00 +6°C° 0 mm 2 mps 734 mmHg 68%
    13:00 +7°C° 0 mm 2 mps 734 mmHg 65%
    14:00 +6°C° 0 mm 2 mps 733 mmHg 68%
    15:00 +6°C° 0 mm 2 mps 733 mmHg 72%
    16:00 +4°C° 0 mm 3 mps 732 mmHg 75%
    17:00 +4°C° 0 mm 3 mps 732 mmHg 78%
    18:00 +4°C° 0 mm 3 mps 732 mmHg 81%
    19:00 +3°C° 0 mm 4 mps 732 mmHg 84%
    20:00 +3°C° 0 mm 4 mps 732 mmHg 86%
    21:00 +3°C° 0 mm 4 mps 732 mmHg 88%
    22:00 +3°C° 0 mm 4 mps 732 mmHg 90%
    23:00 +3°C° 0 mm 3 mps 731 mmHg 88%

    Tomorrow, 12 November, Tuesday

    Time Temperature Precipitation Wind Pressure Humidity
    00:00 +3°C° 0 mm 3 mps 731 mmHg 87%
    01:00 +3°C° 0 mm 3 mps 731 mmHg 85%
    02:00 +3°C° 0 mm 3 mps 731 mmHg 84%
    03:00 +3°C° 0 mm 3 mps 730 mmHg 83%
    04:00 +3°C° 0 mm 3 mps 730 mmHg 81%
    05:00 +4°C° 0 mm 2 mps 730 mmHg 80%
    06:00 +4°C° 0 mm 2 mps 730 mmHg 80%
    07:00 +5°C° 0 mm 2 mps 731 mmHg 79%
    08:00 +7°C° 0 mm 1 mps 730 mmHg 76%
    09:00 +8°C° 0 mm 1 mps 730 mmHg 73%
    10:00 +9°C° 0 mm 1 mps 730 mmHg 70%
    11:00 +9°C° 0 mm 1 mps 730 mmHg 69%
    12:00 +10°C° 0 mm 1 mps 730 mmHg 68%
    13:00 +10°C° 0 mm 2 mps 730 mmHg 66%
    14:00 +9°C° 0.2 mm 2 mps 729 mmHg 72%
    15:00 +9°C° 0.2 mm 2 mps 729 mmHg 77%
    16:00 +8°C° 0.2 mm 3 mps 728 mmHg 82%
    17:00 +8°C° 1 mm 3 mps 728 mmHg 83%
    18:00 +8°C° 1 mm 3 mps 728 mmHg 85%
    19:00 +8°C° 1 mm 3 mps 728 mmHg 86%
    20:00 +8°C° 0.3 mm 2 mps 728 mmHg 85%
    21:00 +8°C° 0.3 mm 2 mps 727 mmHg 85%
    22:00 +8°C° 0.3 mm 2 mps 727 mmHg 84%
    23:00 +8°C° 0.1 mm 2 mps 727 mmHg 83%

    Day after tomorrow, 13 November, Wednesday

    Time Temperature Precipitation Wind Pressure Humidity
    00:00 +8°C° 0.1 mm 2 mps 727 mmHg 82%
    01:00 +8°C° 0.1 mm 2 mps 726 mmHg 81%
    02:00 +8°C° 0 mm 3 mps 726 mmHg 81%
    03:00 +9°C° 0 mm 3 mps 726 mmHg 80%
    04:00 +9°C° 0 mm 3 mps 725 mmHg 80%
    05:00 +9°C° 0.5 mm 3 mps 725 mmHg 83%
    06:00 +9°C° 0.5 mm 2 mps 725 mmHg 87%
    07:00 +9°C° 0.5 mm 2 mps 725 mmHg 91%
    08:00 +10°C° 0.5 mm 2 mps 725 mmHg 91%
    09:00 +10°C° 0.5 mm 2 mps 724 mmHg 91%
    10:00 +10°C° 0.5 mm 2 mps 724 mmHg 91%
    11:00 +10°C° 0.3 mm 2 mps 724 mmHg 89%
    12:00 +12°C° 0.3 mm 2 mps 724 mmHg 88%
    13:00 +12°C° 0.3 mm 1 mps 724 mmHg 86%
    14:00 +12°C° 0 mm 2 mps 724 mmHg 87%
    15:00 +10°C° 0 mm 2 mps 724 mmHg 88%
    16:00 +10°C° 0 mm 2 mps 724 mmHg 89%
    17:00 +10°C° 0 mm 3 mps 724 mmHg 87%
    18:00 +10°C° 0 mm 3 mps 724 mmHg 84%
    19:00 +11°C° 0 mm 4 mps 723 mmHg 81%
    20:00 +10°C° 0 mm 5 mps 723 mmHg 80%
    21:00 +10°C° 0 mm 6 mps 723 mmHg 79%
    22:00 +10°C° 0 mm 6 mps 722 mmHg 78%
    23:00 +10°C° 0 mm 6 mps 723 mmHg 78%

    14 November, Thursday

    Time Temperature Precipitation Wind Pressure Humidity
    00:00 +10°C° 0 mm 5 mps 723 mmHg 79%
    01:00 +10°C° 0 mm 5 mps 724 mmHg 80%
    02:00 +9°C° 0 mm 5 mps 725 mmHg 82%
    03:00 +7°C° 0 mm 4 mps 725 mmHg 84%
    04:00 +6°C° 0 mm 4 mps 726 mmHg 86%
    05:00 +7°C° 0 mm 3 mps 726 mmHg 87%
    06:00 +5°C° 0 mm 3 mps 727 mmHg 87%
    07:00 +6°C° 0 mm 2 mps 728 mmHg 88%
    08:00 +6°C° 0 mm 2 mps 728 mmHg 85%
    09:00 +8°C° 0 mm 1 mps 729 mmHg 82%
    10:00 +8°C° 0 mm 1 mps 729 mmHg 79%
    11:00 +8°C° 0 mm 2 mps 729 mmHg 77%
    12:00 +9°C° 0 mm 2 mps 729 mmHg 76%
    13:00 +9°C° 0 mm 3 mps 729 mmHg 75%
    14:00 +9°C° 0 mm 2 mps 729 mmHg 78%
    15:00 +9°C° 0 mm 2 mps 729 mmHg 82%
    16:00 +8°C° 0 mm 2 mps 729 mmHg 85%
    17:00 +8°C° 0 mm 2 mps 729 mmHg 88%
    18:00 +8°C° 0 mm 2 mps 729 mmHg 91%
    19:00 +8°C° 0 mm 2 mps 729 mmHg 93%
    20:00 +8°C° 0 mm 2 mps 729 mmHg 93%
    21:00 +8°C° 0 mm 2 mps 729 mmHg 93%
    22:00 +9°C° 0 mm 2 mps 729 mmHg 93%
    23:00 +9°C° 0 mm 3 mps 729 mmHg 93%

    15 November, Friday

    Time Temperature Precipitation Wind Pressure Humidity
    00:00 +9°C° 0 mm 3 mps 729 mmHg 92%
    01:00 +9°C° 0 mm 3 mps 729 mmHg 91%
    02:00 +8°C° 0 mm 3 mps 729 mmHg 91%
    03:00 +8°C° 0 mm 3 mps 729 mmHg 91%
    04:00 +8°C° 0 mm 3 mps 729 mmHg 90%
    05:00 +8°C° 0 mm 3 mps 729 mmHg 90%
    06:00 +8°C° 0 mm 3 mps 729 mmHg 90%
    07:00 +8°C° 0 mm 3 mps 729 mmHg 90%
    08:00 +10°C° 0 mm 3 mps 729 mmHg 84%
    09:00 +11°C° 0 mm 4 mps 729 mmHg 79%
    10:00 +12°C° 0 mm 4 mps 730 mmHg 74%
    11:00 +13°C° 0 mm 4 mps 730 mmHg 70%
    12:00 +14°C° 0 mm 4 mps 730 mmHg 66%
    13:00 +15°C° 0 mm 4 mps 730 mmHg 62%
    14:00 +14°C° 0 mm 4 mps 730 mmHg 67%
    15:00 +13°C° 0 mm 4 mps 730 mmHg 72%
    16:00 +12°C° 0 mm 3 mps 730 mmHg 78%
    17:00 +12°C° 0 mm 3 mps 730 mmHg 79%
    18:00 +11°C° 0 mm 3 mps 730 mmHg 79%
    19:00 +11°C° 0 mm 3 mps 730 mmHg 80%
    20:00 +10°C° 0 mm 3 mps 731 mmHg 80%
    21:00 +10°C° 0 mm 4 mps 731 mmHg 79%
    22:00 +10°C° 0 mm 4 mps 731 mmHg 78%
    23:00 +10°C° 0 mm 4 mps 731 mmHg 77%

    16 November, Saturday

    Time Temperature Precipitation Wind Pressure Humidity
    00:00 +10°C° 0 mm 3 mps 731 mmHg 76%
    01:00 +10°C° 0 mm 3 mps 731 mmHg 75%
    02:00 +10°C° 0 mm 3 mps 731 mmHg 75%
    03:00 +9°C° 0 mm 3 mps 731 mmHg 75%
    04:00 +9°C° 0 mm 3 mps 732 mmHg 76%
    05:00 +8°C° 0 mm 4 mps 732 mmHg 76%
    06:00 +10°C° 0 mm 4 mps 732 mmHg 77%
    07:00 +10°C° 0 mm 4 mps 732 mmHg 78%
    08:00 +10°C° 0 mm 4 mps 732 mmHg 75%
    09:00 +10°C° 0 mm 5 mps 732 mmHg 72%
    10:00 +12°C° 0 mm 5 mps 733 mmHg 70%
    11:00 +13°C° 0 mm 5 mps 733 mmHg 67%
    12:00 +14°C° 0 mm 5 mps 733 mmHg 63%
    13:00 +15°C° 0 mm 5 mps 733 mmHg 60%
    14:00 +14°C° 0 mm 4 mps 733 mmHg 64%
    15:00 +13°C° 0 mm 3 mps 733 mmHg 68%
    16:00 +13°C° 0 mm 2 mps 734 mmHg 72%
    17:00 +13°C° 0 mm 2 mps 734 mmHg 74%
    18:00 +13°C° 0 mm 1 mps 735 mmHg 76%
    19:00 +12°C° 0 mm 1 mps 735 mmHg 78%
    20:00 +12°C° 0 mm 1 mps 735 mmHg 79%
    21:00 +12°C° 0 mm 1 mps 736 mmHg 81%
    22:00 +11°C° 0 mm 1 mps 736 mmHg 82%
    23:00 +11°C° 0 mm 1 mps 736 mmHg 84%
    Show more